Location: Brookfield Center
(41.2406°N, 80.5579°W)
Time: 10:19:59
(UTC+00:00)

Cosmos 1538 Rocket - Pass Details

Date: 18 January 2020
Orbit: 753 x 791 km, 74.0° (Epoch: 16 February)

Event Time Altitude Azimuth Distance (km) Brightness Sun altitude
Rises 11:36:14 0° 219° (SW) 3,272 7.0 -12.7°
Reaches altitude 10° 11:38:46 10° 227° (SW) 2,344 6.2 -12.3°
Maximum altitude 11:43:45 39° 296° (WNW) 1,168 4.5 -11.4°
Drops below altitude 10° 11:48:43 10° 5° (N) 2,340 6.4 -10.5°
Sets 11:51:16 0° 13° (NNE) 3,265 7.2 -10.0°
